263P/Gibbs (2023)

Japanese version
Home page
Updated on July 26, 2023

---------------------------------------------------------------------

* Profile

* Pictures

* Orbital Elements

Epoch 2023 Feb. 25.0 TT = JDT 2460000.5
T 2023 Jan. 30.58452 TT                                 Rudenko
q   1.2362995            (2000.0)            P               Q
n   0.18578719     Peri.   35.04411     -0.76107490     -0.61945280
a   3.0417642      Node   105.50995     +0.54013905     -0.76950258
e   0.5935584      Incl.   11.52175     +0.35918631     -0.15538340
P   5.31
>From 405 observations 2006 Nov. 10-2023 Feb. 26, mean residual 0".6.

* Finding Charts

* Magnitudes Graph

        m1 = 17.5 + 5 log d + 10.0 log r(t - 50)

---------------------------------------------------------------------

The orbital elements are published on M.P.E.C. 2023-D72.
The charts are made with StellaNavigator Ver.10 (AstroArts).
The magnitudes graphs are made with Comet for Windows.

---------------------------------------------------------------------

Copyright(C) Seiichi Yoshida (comet@aerith.net). All rights reserved.